Simultaneous Nadir Overpasses (SNOs) Predictions

Prediction of SNOs between FY3D and NOAA-19 Satellite Orbit:

Table of predicted SNOs for the next 14.0 days since TLE Epoch: 10/8/2022
Index Date (FY3D) Time (FY3D) Lat,Lon (FY3D) SZA (FY3D ) Date (NOAA-19) Time (NOAA-19) Lat,Lon (NOAA-19) SZA (NOAA-19 ) Distance(km) Time Diff (sec)
1 10/16/2022 04:57:23 77.05, 92.01 86.05 10/16/2022 04:56:10 77.05, 91.15 86.09 21.42 73
2 10/16/2022 05:48:11 -77.17,-101.18 93.81 10/16/2022 05:47:03 -77.15,-101.09 93.82 3.05 68
3 10/16/2022 06:38:57 77.17, 66.12 86.21 10/16/2022 06:38:07 77.16, 66.17 86.21 1.95 50
4 10/16/2022 07:29:42 -77.16,-126.51 93.79 10/16/2022 07:29:02 -77.18,-126.46 93.77 2.63 40
5 10/16/2022 08:20:28 77.16, 40.79 86.23 10/16/2022 08:20:06 77.19, 40.80 86.26 2.80 22
6 10/16/2022 09:11:14 -77.19,-152.03 93.73 10/16/2022 09:11:02 -77.17,-152.01 93.75 2.76 12
7 10/16/2022 10:01:59 77.19, 15.27 86.29 10/16/2022 10:02:05 77.17, 15.25 86.27 2.23 6
8 10/16/2022 10:52:44 -77.18,-177.36 93.72 10/16/2022 10:53:00 -77.19,-177.38 93.70 1.65 16
9 10/16/2022 11:43:30 77.18, -10.06 86.30 10/16/2022 11:44:04 77.20, -10.11 86.32 2.59 34
10 10/16/2022 12:34:16 -77.21, 157.12 93.65 10/16/2022 12:35:00 -77.18, 157.07 93.69 3.53 44
11 10/16/2022 13:25:02 77.21, -35.58 86.37 10/16/2022 13:26:03 77.23, -35.48 86.37 3.15 61
12 10/16/2022 14:15:47 -77.20, 131.78 93.64 10/16/2022 14:16:59 -77.21, 131.70 93.64 2.23 72



Historial Predications of SNOs between FY3D and NOAA-19
